| time (UTC) | temp F | wind direction | speed MPH | gust MPH | rain 1hr in | rain 24hr in | rain mn in | humidity % | barometer mb |
| 20260505054534 | 57 | 2 | 2.0 | 8.0 | 0.04 | 0.04 | 0.04 | 78 | 1004.8 |
| 20260505053021 | 58 | 300 | 2.0 | 7.0 | 0.04 | 0.04 | 0.04 | 77 | 1004.6 |
| 20260505051516 | 61 | 1 | 4.0 | 10.0 | 0.02 | 0.02 | 0.02 | 68 | 1004.2 |
| 20260505041510 | 70 | 279 | 3.0 | 11.0 | 0.00 | 0.00 | 0.00 | 58 | 1003.0 |
| 20260505040009 | 69 | 259 | 2.0 | 6.0 | 0.00 | 0.00 | 0.00 | 73 | 1002.8 |
| 20260505034509 | 70 | 172 | 1.0 | 5.0 | 0.00 | 0.00 | 0.00 | 73 | 1002.4 |
| 20260505033016 | 70 | 172 | 2.0 | 5.0 | 0.00 | 0.00 | 0.00 | 73 | 1002.3 |
| 20260505031507 | 70 | 183 | 1.0 | 3.0 | 0.00 | 0.00 | 0.00 | 73 | 1002.3 |
| 20260505030007 | 70 | 185 | 1.0 | 4.0 | 0.00 | 0.00 | 0.00 | 72 | 1002.2 |
| 20260505024506 | 71 | 185 | 2.0 | 5.0 | 0.00 | 0.00 | 0.00 | 71 | 1001.9 |
| 20260505023006 | 71 | 193 | 2.0 | 5.0 | 0.00 | 0.00 | 0.00 | 69 | 1001.7 |
| 20260505021506 | 72 | 208 | 3.0 | 7.0 | 0.00 | 0.00 | 0.00 | 68 | 1001.5 |
| 20260505020005 | 72 | 169 | 4.0 | 7.0 | 0.00 | 0.00 | 0.00 | 69 | 1001.4 |
| 20260505014509 | 72 | 179 | 2.0 | 6.0 | 0.00 | 0.00 | 0.00 | 67 | 1001.2 |
| 20260505013003 | 74 | 179 | 0.0 | 4.0 | 0.00 | 0.00 | 0.00 | 63 | 1001.2 |
| 20260505011504 | 74 | 134 | 1.0 | 2.0 | 0.00 | 0.00 | 0.00 | 60 | 1000.9 |
| 20260505010002 | 75 | 22 | 1.0 | 3.0 | 0.00 | 0.00 | 0.00 | 60 | 1000.7 |
| 20260505004505 | 75 | 311 | 0.0 | 1.0 | 0.00 | 0.00 | 0.00 | 59 | 1000.6 |
| 20260505003002 | 76 | 232 | 0.0 | 1.0 | 0.00 | 0.00 | 0.00 | 57 | 1000.5 |
| 20260505001501 | 77 | 231 | 0.0 | 0.0 | 0.00 | 0.00 | 0.00 | 54 | 1000.5 |
| 20260505000104 | 78 | 229 | 0.0 | 1.0 | 0.00 | 0.00 | 0.00 | 57 | 1000.6 |
| 20260504234627 | 78 | 232 | 0.0 | 2.0 | 0.00 | 0.00 | 0.00 | 56 | 1000.6 |
| 20260504233059 | 78 | 229 | 1.0 | 3.0 | 0.00 | 0.00 | 0.00 | 54 | 1000.6 |
| 20260504231605 | 78 | 232 | 1.0 | 4.0 | 0.00 | 0.00 | 0.00 | 52 | 1000.7 |
| 20260504230057 | 79 | 216 | 2.0 | 6.0 | 0.00 | 0.00 | 0.00 | 51 | 1000.7 |
| 20260504224605 | 79 | 196 | 1.0 | 3.0 | 0.00 | 0.00 | 0.00 | 53 | 1000.7 |
| 20260504223056 | 79 | 194 | 3.0 | 7.0 | 0.00 | 0.00 | 0.00 | 51 | 1000.7 |
| 20260504221603 | 79 | 200 | 4.0 | 11.0 | 0.00 | 0.00 | 0.00 | 53 | 1000.6 |
| 20260504220055 | 80 | 205 | 5.0 | 10.0 | 0.00 | 0.00 | 0.00 | 50 | 1000.7 |
| 20260504214554 | 81 | 243 | 5.0 | 10.0 | 0.00 | 0.00 | 0.00 | 43 | 1000.8 |
| 20260504213101 | 81 | 231 | 4.0 | 10.0 | 0.00 | 0.00 | 0.00 | 48 | 1000.8 |
| 20260504211548 | 81 | 167 | 5.0 | 11.0 | 0.00 | 0.00 | 0.00 | 48 | 1001.0 |
| 20260504210054 | 80 | 240 | 4.0 | 10.0 | 0.00 | 0.00 | 0.00 | 50 | 1001.3 |
| 20260504204619 | 80 | 245 | 4.0 | 11.0 | 0.00 | 0.00 | 0.00 | 48 | 1001.4 |
| 20260504203042 | 80 | 250 | 4.0 | 8.0 | 0.00 | 0.00 | 0.00 | 49 | 1001.4 |
| 20260504201540 | 80 | 211 | 5.0 | 11.0 | 0.00 | 0.00 | 0.00 | 42 | 1001.5 |
| 20260504200041 | 80 | 245 | 6.0 | 12.0 | 0.00 | 0.00 | 0.00 | 45 | 1001.7 |
| 20260504194547 | 80 | 194 | 6.0 | 14.0 | 0.00 | 0.00 | 0.00 | 45 | 1001.8 |
| 20260504193039 | 80 | 201 | 7.0 | 13.0 | 0.00 | 0.00 | 0.00 | 46 | 1001.8 |
| 20260504191536 | 80 | 238 | 8.0 | 14.0 | 0.00 | 0.00 | 0.00 | 47 | 1001.8 |
| 20260504190037 | 80 | 204 | 7.0 | 11.0 | 0.00 | 0.00 | 0.00 | 44 | 1001.9 |
| 20260504184530 | 79 | 223 | 6.0 | 11.0 | 0.00 | 0.00 | 0.00 | 47 | 1001.9 |
| 20260504183029 | 79 | 259 | 5.0 | 11.0 | 0.00 | 0.00 | 0.00 | 50 | 1002.0 |
| 20260504181526 | 78 | 256 | 8.0 | 17.0 | 0.00 | 0.00 | 0.00 | 51 | 1002.1 |
| 20260504180024 | 77 | 210 | 5.0 | 14.0 | 0.00 | 0.00 | 0.00 | 54 | 1002.3 |
| 20260504174523 | 77 | 172 | 5.0 | 13.0 | 0.00 | 0.00 | 0.00 | 50 | 1002.3 |
| 20260504173022 | 76 | 246 | 8.0 | 16.0 | 0.00 | 0.00 | 0.00 | 51 | 1002.5 |
| 20260504171534 | 75 | 206 | 7.0 | 16.0 | 0.00 | 0.00 | 0.00 | 53 | 1002.6 |
| 20260504150105 | 70 | 236 | 10.0 | 20.0 | 0.00 | 0.00 | 0.00 | 58 | 1002.9 |
| 20260504081521 | 65 | 221 | 8.0 | 15.0 | 0.00 | 0.00 | 0.00 | 58 | 1003.6 |
| 20260504070104 | 66 | 218 | 7.0 | 17.0 | 0.00 | 0.00 | 0.00 | 56 | 1004.9 |